Tracking 19572 objects as of 23-Feb-2019
HD Live streaming from Space Station
objects crossing your sky now

COSMOS 2248

Track COSMOS 2248 now!
10-day predictions
COSMOS 2248 is classified as:


NORAD ID: 22649
Int'l Code: 1993-030D
Perigee: 1,408.8 km
Apogee: 1,423.0 km
Inclination: 82.6 °
Period: 114.0 minutes
Semi major axis: 7786 km
RCS: 1.0352 m2 (large)
Launch date: May 11, 1993
Source: Commonwealth of Independent States (former USSR) (CIS)
Launch site: PLESETSK MISSILE AND SPACE COMPLEX (PKMTR)
aabbcc
Your satellite tracking list
Your tracking list is empty




NASA's NSSDC Master Catalog

Two Line Element Set (TLE):
1 22649U 93030D   19053.91327980 +.00000003 +00000-0 -41882-4 0  9996
2 22649 082.5769 219.4027 0009091 232.4791 127.5475 12.63449899189109
Source of the keplerian elements: AFSPC